[[{"header":{"parameterUnit":"m.s-1","parameterCategory":1,"la1":30.2991,"la2":30.254,"lo1":-89.0895,"lo2":-89.0444,"dx":0.0017,"dy":0.0017,"nx":28,"ny":28,"refTime":"2022-11-13T15:00:00:Z","depth":0,"parameterNumber":2,"parameterNumberName":"U-component_of_WINDS"},"data":[0,0,0,0,0,0,0,0,0,0,0,0,0,0,0,0,0,0,0,0,0,0,0,0,0,0,0,0,0,0,0,0,0,0,0,0,0,0,0,0,0,0,0,0,0,0,0,0,0,0,0,0,0,0,0,0,0,0,1.2802,1.2807,0,1.3232,1.3237,1.3242,1.3258,1.3253,1.3248,1.3243,1.3693,1.371,1.3726,0,0,0,0,0,0,0,0,0,0,0,0,0,1.2007,1.2021,1.2802,1.2807,1.2813,1.3231,1.3237,1.3243,1.3259,1.3253,1.3246,1.324,1.3688,1.3708,1.3728,0,0,0,0,0,0,0,0,0,0,0,0,0,1.2386,1.2026,1.2801,1.2871,1.2881,1.323,1.3237,1.3244,1.326,1.3252,1.3245,1.3237,1.3681,1.3706,1.3731,1.4042,0,0,1.3808,1.3819,0,0,0,0,0,0,0,0,1.2364,1.2415,1.2855,1.2867,1.2879,1.3183,1.3122,1.3512,1.3262,1.3117,1.3243,1.3234,1.3531,1.3568,1.3666,1.4063,1.4082,1.381,1.3825,1.3836,1.3843,0,0,0,0,0,0,0,1.2338,1.2397,1.2972,1.2862,1.2876,1.2884,1.293,1.3196,1.3362,1.3129,1.3131,1.3181,1.3536,1.3641,1.3676,1.4089,1.3809,1.3832,1.3847,1.3857,1.4764,1.4773,0,0,0,0,0,0,1.2296,1.2375,1.2959,1.2985,1.2597,1.2905,1.2956,1.3094,1.3359,1.3392,1.3187,1.318,1.3602,1.3647,1.3692,1.4075,1.3836,1.386,1.3874,1.4756,1.4766,1.4776,0,0,0,0,0,0,1.2279,1.2348,1.2941,1.2681,1.2757,1.2927,1.3082,1.3106,1.3212,1.3403,1.3434,1.3264,1.3598,1.3657,1.3954,1.4091,1.3871,1.3894,1.4745,1.4759,1.4771,1.4841,0,0,0,0,0,0,1.2256,1.2342,1.2459,1.2683,1.277,1.3193,1.309,1.312,1.3254,1.3249,1.3483,1.3515,1.3596,1.3917,1.3979,1.4121,1.3914,1.4734,1.4751,1.4767,1.4828,1.4855,1.4879,0,0,0,0,0,1.2228,1.2464,1.2465,1.2536,1.292,1.3201,1.3251,1.3337,1.3264,1.3386,1.3509,1.3508,1.4065,1.3947,1.4018,1.4169,1.4725,1.4746,1.4766,1.4816,1.485,1.4879,0,0,0,0,0,0,1.2256,1.2495,1.2498,1.2813,1.2986,1.3203,1.3358,1.337,1.357,1.3557,1.3658,1.3711,1.4007,1.4118,1.3982,1.4485,1.4387,1.4423,1.4401,1.4435,1.4461,1.4428,1.3935,0,0,0,0,0,1.2298,1.2502,1.2701,1.296,1.3046,1.3187,1.3313,1.3363,1.3548,1.3623,1.3768,1.395,1.4166,1.4307,1.4517,1.4843,1.4896,1.4983,1.5009,1.5029,1.5059,1.5241,1.5282,1.4842,1.4842,1.4842,0,0,1.2388,1.2544,1.2668,1.297,1.311,1.3322,1.3249,1.3477,1.3637,1.3659,1.3947,1.406,1.4271,1.4584,1.473,1.4686,1.5191,1.5055,1.5069,1.5089,1.5266,1.5307,1.5344,1.4856,1.4854,1.4851,0,0,1.2662,1.2799,1.303,1.3171,1.3382,1.3475,1.353,1.3746,1.3821,1.4111,1.4132,1.4325,1.4695,1.4844,1.4969,1.5299,1.5305,1.5364,1.55,1.5676,1.5711,1.5742,1.5861,1.5902,1.5393,1.5393,1.5394,0,1.2748,1.3066,1.3148,1.3376,1.351,1.3535,1.3772,1.3906,1.4177,1.427,1.4216,1.4681,1.4825,1.5174,1.5254,1.5354,1.5422,1.5338,1.5698,1.5731,1.5761,1.5876,1.592,1.5399,1.5399,1.5398,1.5397,0,1.3163,1.3383,1.3545,1.3802,1.3954,1.4185,1.4306,1.445,1.4488,1.4586,1.4884,1.5056,1.5301,1.5388,1.5428,1.5744,1.571,1.5677,1.5581,1.5808,1.5917,1.5961,1.5408,1.5406,1.5404,1.5402,0,0,1.3466,1.3764,1.3823,1.394,1.4175,1.4349,1.4583,1.4819,1.4942,1.5128,1.5328,1.5641,1.5611,1.5752,1.581,1.5964,1.6215,1.5912,1.5919,1.5963,1.6575,1.6599,1.6648,1.6221,1.6229,1.6236,1.6557,0,1.3766,1.4177,1.4259,1.4618,1.4824,1.4851,1.5055,1.5224,1.5323,1.5514,1.5625,1.5845,1.5788,1.5874,1.6028,1.6152,1.634,1.613,1.641,1.6419,1.6357,1.6705,1.6731,1.7026,1.66,1.6608,1.6613,0,1.417,1.4362,1.4741,1.4949,1.5039,1.522,1.5444,1.5626,1.5818,1.588,1.6036,1.6077,1.6324,1.6215,1.6558,1.6413,1.6533,1.6611,1.6625,1.6655,1.653,1.6745,1.7122,1.7166,1.6681,1.6676,1.6671,0,1.4354,1.4708,1.4981,1.508,1.533,1.5457,1.5567,1.5752,1.5889,1.6086,1.6176,1.64,1.6523,1.6697,1.6797,1.6709,1.7133,1.7033,1.7193,1.7191,1.7282,1.7275,1.7683,1.7358,1.7357,1.7356,1.7355,0,1.468,1.4911,1.5066,1.5234,1.5494,1.5587,1.5844,1.5953,1.6117,1.6309,1.6348,1.6528,1.6649,1.6847,1.6928,1.72,1.7256,1.7314,1.7333,1.7311,1.7303,1.7391,1.7373,1.7368,1.7365,1.7363,1.7361,0,1.493,1.5043,1.5342,1.5552,1.5611,1.5794,1.5976,1.6142,1.624,1.6483,1.6545,1.6701,1.6936,1.7053,1.7347,1.7401,1.7708,1.7714,1.7642,1.765,1.7803,1.7787,1.8283,1.8353,1.798,1.7984,1.7987,0,1.513,1.5308,1.5538,1.5667,1.5779,1.5988,1.6128,1.6227,1.6371,1.6603,1.6742,1.6977,1.7171,1.7546,1.7688,1.7912,1.7924,1.8083,1.7959,1.7931,1.7927,1.7915,1.7934,1.8105,1.8108,1.8111,1.8114,0,1.5475,1.5522,1.5719,1.5938,1.6102,1.628,1.6454,1.6559,1.6687,1.6848,1.7086,1.7237,1.7535,1.7769,1.8004,1.8121,1.8141,1.8151,1.82,1.818,1.8131,1.816,1.7703,1.814,1.8137,1.8135,1.8134,1.8133,1.5708,1.5867,1.6053,1.6272,1.6413,1.6576,1.6741,1.686,1.706,1.7308,1.7355,1.7609,1.7799,1.8115,1.824,1.8441,1.8407,1.8478,1.8496,1.8512,1.852,1.8098,1.8485,1.8484,1.8483,1.8483,1.8483,0,1.6054,1.6175,1.6376,1.6617,1.6791,1.679,1.6984,1.713,1.7351,1.7525,1.7714,1.7989,1.8217,1.8376,1.8607,1.8738,1.8753,1.8796,1.8788,1.8815,1.8537,1.8471,1.878,1.878,1.878,1.878,1.878,1.878,1.6255,1.6525,1.6594,1.6935,1.7056,1.7302,1.7413,1.7564,1.7703,1.8007,1.8195,1.8296,1.8465,1.8709,1.8918,1.8959,1.9043,1.9087,1.9128,1.8866,1.8834,1.8804,1.8743,1.9104,1.9104,1.9389,1.9391,1.9393]},{"header":{"parameterUnit":"m.s-1","parameterCategory":1,"la1":30.2991,"la2":30.254,"lo1":-89.0895,"lo2":-89.0444,"dx":0.0017,"dy":0.0017,"nx":28,"ny":28,"refTime":"2022-11-13T15:00:00:Z","depth":0,"parameterNumber":3,"parameterNumberName":"V-component_of_WINDS"},"data":[0,0,0,0,0,0,0,0,0,0,0,0,0,0,0,0,0,0,0,0,0,0,0,0,0,0,0,0,0,0,0,0,0,0,0,0,0,0,0,0,0,0,0,0,0,0,0,0,0,0,0,0,0,0,0,0,0,0,2.0239,2.0245,0,2.0771,2.0777,2.0783,2.0751,2.0743,2.0735,2.0728,2.1301,2.1323,2.1345,0,0,0,0,0,0,0,0,0,0,0,0,0,1.9228,1.9247,2.0239,2.0245,2.0252,2.077,2.0777,2.0784,2.0752,2.0743,2.0733,2.0725,2.1293,2.132,2.1347,0,0,0,0,0,0,0,0,0,0,0,0,0,1.9705,1.9253,2.0237,2.0298,2.0308,2.0768,2.0777,2.0786,2.0754,2.0743,2.0731,2.072,2.1285,2.1317,2.1351,2.1794,0,0,2.1454,2.1469,0,0,0,0,0,0,0,0,1.9678,1.9742,2.0282,2.0294,2.0307,2.0682,2.0631,2.1125,2.0757,2.0586,2.0728,2.0714,2.1106,2.1154,2.128,2.1821,2.1845,2.1457,2.1477,2.1492,2.1502,0,0,0,0,0,0,0,1.9645,1.9719,2.045,2.029,2.0306,2.0309,2.0364,2.0724,2.0907,2.06,2.0599,2.0661,2.1111,2.1248,2.1294,2.1854,2.1456,2.1486,2.1507,2.152,2.2799,2.2812,0,0,0,0,0,0,1.9594,1.9692,2.0433,2.0466,1.9956,2.0337,2.0398,2.0574,2.0902,2.094,2.067,2.0657,2.1196,2.1254,2.1314,2.1861,2.1492,2.1523,2.1543,2.2785,2.2802,2.2817,0,0,0,0,0,0,1.9573,1.9661,2.0412,2.0079,2.0174,2.0366,2.0565,2.0591,2.0727,2.0955,2.099,2.0774,2.1189,2.1266,2.1676,2.1881,2.1539,2.1569,2.2769,2.279,2.2809,2.2955,0,0,0,0,0,0,1.9544,1.9653,1.9814,2.0082,2.0192,2.0755,2.0577,2.061,2.0782,2.077,2.1062,2.1099,2.1186,2.1625,2.1709,2.1921,2.1596,2.2752,2.2778,2.2803,2.2933,2.2978,2.3017,0,0,0,0,0,1.9508,1.9838,1.9823,1.9912,2.0397,2.0766,2.083,2.0914,2.0798,2.0969,2.1117,2.109,2.1844,2.1667,2.1762,2.1987,2.2739,2.2771,2.2801,2.2914,2.297,2.3016,0,0,0,0,0,0,1.9597,1.9874,1.986,2.0284,2.0501,2.0759,2.0975,2.0969,2.123,2.1209,2.1312,2.1379,2.1792,2.1931,2.1728,2.244,2.2278,2.2329,2.2333,2.2387,2.2428,2.2388,2.1624,0,0,0,0,0,1.9664,1.9931,2.0163,2.0517,2.0625,2.0782,2.0946,2.0993,2.1225,2.1319,2.1497,2.1732,2.2023,2.2213,2.2492,2.2954,2.3024,2.3157,2.3198,2.3231,2.3276,2.3542,2.3606,2.2918,2.2918,2.2917,0,0,1.9809,1.9994,2.0157,2.0539,2.0712,2.0997,2.086,2.1165,2.1381,2.1369,2.1764,2.1905,2.2176,2.2615,2.2818,2.2744,2.3482,2.3271,2.3295,2.3322,2.358,2.3645,2.3703,2.2939,2.2935,2.2932,0,0,2.0219,2.0382,2.0697,2.0874,2.1136,2.124,2.1316,2.1578,2.1669,2.2066,2.2066,2.2331,2.2827,2.3022,2.3186,2.3682,2.3671,2.3771,2.3991,2.4249,2.4304,2.4352,2.4537,2.4601,2.3814,2.3815,2.3815,0,2.0369,2.0787,2.0863,2.1171,2.1345,2.134,2.1669,2.184,2.2184,2.2309,2.2219,2.2847,2.3029,2.3519,2.364,2.3771,2.3871,2.3738,2.4287,2.4337,2.4385,2.4562,2.463,2.3825,2.3824,2.3823,2.3822,0,2.0963,2.1255,2.1481,2.1806,2.2005,2.2322,2.2457,2.2652,2.2685,2.2802,2.3216,2.3434,2.3762,2.3882,2.3918,2.4383,2.4329,2.4263,2.4103,2.4459,2.4629,2.4697,2.3841,2.3837,2.3834,2.3831,0,0,2.1439,2.1805,2.1888,2.2039,2.2333,2.2566,2.289,2.3203,2.3373,2.3614,2.3895,2.4319,2.4262,2.4449,2.4509,2.4735,2.5125,2.4643,2.4652,2.4731,2.5662,2.5712,2.5788,2.5119,2.5132,2.5142,2.5641,0,2.1883,2.2444,2.2526,2.3027,2.3305,2.331,2.3594,2.3812,2.3933,2.4196,2.4335,2.4635,2.4532,2.4647,2.487,2.5029,2.5314,2.4994,2.5393,2.5406,2.5326,2.5875,2.5927,2.6386,2.5707,2.5718,2.5726,0,2.2474,2.2724,2.325,2.3514,2.3634,2.3885,2.4185,2.4432,2.4686,2.476,2.4972,2.5007,2.5357,2.5181,2.5671,2.5452,2.5622,2.5727,2.5747,2.579,2.5589,2.5939,2.6534,2.6605,2.583,2.5821,2.5814,0,2.2776,2.3247,2.3624,2.3753,2.4068,2.4247,2.4389,2.4629,2.4816,2.5083,2.5207,2.5514,2.5683,2.5926,2.6049,2.5908,2.6536,2.6367,2.6616,2.6614,2.6749,2.6739,2.7384,2.6852,2.6851,2.6849,2.6848,0,2.3265,2.3588,2.3764,2.3997,2.4365,2.4463,2.4828,2.4967,2.5183,2.5452,2.5479,2.5734,2.5878,2.6159,2.6259,2.6655,2.6731,2.6809,2.6833,2.6809,2.68,2.6923,2.6896,2.6868,2.6864,2.686,2.6857,0,2.3663,2.3792,2.4206,2.4471,2.4546,2.4806,2.504,2.5273,2.5395,2.5737,2.5824,2.6019,2.6352,2.6497,2.6909,2.6977,2.7433,2.7431,2.7344,2.7353,2.7596,2.7573,2.8346,2.8457,2.7846,2.7852,2.7856,0,2.3967,2.4215,2.4507,2.4685,2.4831,2.5118,2.5308,2.542,2.5619,2.5931,2.6131,2.6461,2.6731,2.7266,2.7453,2.7771,2.7781,2.803,2.7829,2.7801,2.7793,2.7778,2.7808,2.8067,2.8074,2.8078,2.8082,0,2.4496,2.4549,2.4815,2.511,2.5335,2.5574,2.5808,2.5956,2.6107,2.6332,2.6667,2.6877,2.7297,2.7631,2.7962,2.8122,2.8134,2.8144,2.822,2.8199,2.8141,2.8183,2.7449,2.8126,2.8122,2.8119,2.8116,2.8115,2.4861,2.5085,2.5326,2.5627,2.5815,2.6035,2.6269,2.6421,2.6699,2.7043,2.7096,2.7458,2.772,2.8164,2.8337,2.8631,2.8571,2.8679,2.8707,2.8733,2.8751,2.8091,2.8692,2.8691,2.869,2.8689,2.8688,0,2.5395,2.5552,2.5827,2.6152,2.6393,2.6373,2.6635,2.6841,2.7155,2.7393,2.7658,2.8052,2.8378,2.8592,2.8925,2.912,2.9135,2.9204,2.9193,2.9232,2.8782,2.8685,2.9187,2.9187,2.9187,2.9187,2.9187,2.9187,2.5701,2.6081,2.6166,2.6646,2.6805,2.7151,2.7304,2.7514,2.7704,2.8138,2.8406,2.854,2.8775,2.9126,2.9429,2.9485,2.961,2.9684,2.9738,2.9314,2.9262,2.9213,2.9123,2.9709,2.9709,3.0165,3.0169,3.0172]}]]